OBJECT_NAME,OBJECT_ID,EPOCH,MEAN_MOTION,ECCENTRICITY,INCLINATION,RA_OF_ASC_NODE,ARG_OF_PERICENTER,MEAN_ANOMALY,EPHEMERIS_TYPE,CLASSIFICATION_TYPE,NORAD_CAT_ID,ELEMENT_SET_NO,REV_AT_EPOCH,BSTAR,MEAN_MOTION_DOT,MEAN_MOTION_DDOT APRIZESAT 2,2004-025A,2026-09-12T06:12:28.905696,14.38066565,.01052273,98.1122,56.3590,347.9745,11.8933,0,U,28366,999,16415,.31292565E-4,.58E-6,0 SAUDICOMSAT 1,2004-025D,2026-09-12T06:05:22.090560,14.55524474,.00332217,98.5792,267.7464,115.8920,244.5708,0,U,28369,999,17679,.58067096E-4,.205E-5,0 SAUDICOMSAT 2,2004-025E,2026-09-12T06:41:54.172608,14.50023268,.00554821,98.6651,269.9913,356.9997,3.0856,0,U,28370,999,17272,.56487785E-4,.173E-5,0 APRIZESAT 1,2004-025G,2026-09-12T06:31:24.045312,14.51816834,.00434054,98.6322,268.3779,249.9361,109.7159,0,U,28372,999,17454,.39766643E-4,.112E-5,0 NANOSAT-1,2004-049B,2026-09-12T02:23:29.877504,14.80304213,.00044535,98.2403,33.9557,30.2718,329.8750,0,U,28493,999,16830,.97057508E-4,.684E-5,0 SAUDICOMSAT 7,2007-012C,2026-09-11T22:07:26.582880,14.66197776,.00543361,98.3887,230.8776,285.1796,74.3401,0,U,31119,999,3514,.74296381E-4,.363E-5,0 SAUDICOMSAT 6,2007-012E,2026-09-12T04:17:52.512000,14.62628284,.00727912,98.4207,224.3612,56.5543,304.2591,0,U,31121,999,3290,.86986166E-4,.406E-5,0 SAUDICOMSAT 5,2007-012H,2026-09-12T04:23:17.861568,14.68253253,.0046539,98.3598,231.8762,210.6104,149.2384,0,U,31124,999,3636,.71655609E-4,.365E-5,0 SAUDICOMSAT 3,2007-012J,2026-09-11T22:11:13.289568,14.70813454,.00398931,98.3251,232.1536,136.2763,224.1614,0,U,31125,999,3757,.82880254E-4,.458E-5,0 SAUDICOMSAT 4,2007-012L,2026-09-11T22:08:00.738528,14.64591046,.0063113,98.4093,229.3075,348.6856,11.2923,0,U,31127,999,3398,.93222382E-4,.455E-5,0 APRIZESAT 4,2009-041D,2026-09-12T04:10:02.574624,14.83986662,.00440403,98.1350,332.2012,40.8709,319.5793,0,U,35684,999,92426,.5960576E-4,.445E-5,0 APRIZESAT 3,2009-041F,2026-09-12T00:44:15.960192,14.96444580,.00620614,98.2178,52.4925,139.6292,220.9559,0,U,35686,999,92936,.84057226E-4,.922E-5,0 S-NET D,2018-014G,2026-09-11T17:42:24.757056,15.17355487,.0009886,97.5260,158.9828,80.4562,279.7788,0,U,43186,999,47188,.18854E-3,.3699E-4,0 S-NET B,2018-014H,2026-09-12T03:31:13.472544,15.17325725,.00104311,97.5264,159.3779,75.2351,285.0038,0,U,43187,999,47194,.18983382E-3,.3722E-4,0 S-NET A,2018-014J,2026-09-11T14:30:11.496672,15.17363167,.00103565,97.5276,159.0647,77.4729,282.7662,0,U,43188,999,47186,.19155391E-3,.3761E-4,0 S-NET C,2018-014K,2026-09-11T16:32:49.007904,15.17312752,.00116149,97.5291,159.2370,70.5531,289.6956,0,U,43189,999,47042,.19784511E-3,.3882E-4,0 SALSAT,2020-068K,2026-09-11T23:28:21.147456,15.30885844,.00094697,97.8880,263.4175,9.1845,350.9566,0,U,46495,999,32863,.20261281E-3,.5968E-4,0 OOV-CUBE (TUBSAT-30),2024-128F,2026-09-12T01:54:09.755712,15.03087611,.00324263,61.9933,282.5109,153.9439,206.3293,0,U,60240,999,11917,.9736169E-4,.112E-4,0 LPNTSAT-001 (IOD-1),2026-065A,2026-09-12T02:42:48.504960,15.18901366,.00179174,97.3868,133.7386,63.7198,296.5875,0,U,68408,999,2545,.9806508E-4,.1986E-4,0 CHUANG XIN 26 (CX-26),2026-158A,2026-09-11T14:36:27.428256,14.25129358,.00051877,49.9848,33.8907,148.4258,211.6968,0,U,69972,999,903,-.10642632E-4,-.185E-5,0